BANGABANDHUSAT-1 (43463 NORAD) Tracking and Keplerian Element Data

This shows tracking and keplerian element data for the satellite.

Feedback or suggestion? Click here.




ElementValue
Catalog43463
NameBANGABANDHUSAT-1
Epoch Orbit2228
Epoch Day158.74980589
Epoch Year2024
RAAN65.7862
Inclination0.0197
Eccentricity0.0001648
Argument of Perigee20.4985
Mean Anonmoly198.3779
Mean Motion1.00270235
Decay Rate-3.62E-06
L11 43463U 18044A 24158.74980589 -.00000362 00000+0 00000+0 0 9997
L22 43463 0.0197 65.7862 0001648 20.4985 198.3779 1.00270235 22288



Live tracking and technical data element details for BANGABANDHUSAT-1 (NORAD 43463). BANGABANDHUSAT-1 can be tracked NOW for your location showing map with azimuth and elevation plus other details from your city location.







IsCatalogInMostPopularTable: catalog: 43463, numindb: 620
Update: records affected: 1



GetName: 43463 BANGABANDHUSAT-1

Hit Count: updated at: Fri, 14 Jun 2024 18:00:40 GMT